SB KEPS @ AMSAT $ORB08010.N 2Line Orbital Elements 08010.AMSAT
HR AMSAT ORBITAL ELEMENTS FOR AMATEUR SATELLITES IN NASA FORMAT FROM WA5QGD FORT WORTH,TX January 10, 2008 Send Subscribe/unsubscribe to KEPS at http://www.amsat.org/mailman/listinfo/keps BID: ORB08010.N
DECODE 2-LINE ELSETS WITH THE FOLLOWING KEY: 1 AAAAAU 00 0 0 BBBBB.BBBBBBBB .CCCCCCCC 00000-0 00000-0 0 DDDZ 2 AAAAA EEE.EEEE FFF.FFFF GGGGGGG HHH.HHHH III.IIII JJ.JJJJJJJJKKKKKZ KEY: A-CATALOGNUM B-EPOCHTIME C-DECAY D-ELSETNUM E-INCLINATION F-RAAN G-ECCENTRICITY H-ARGPERIGEE I-MNANOM J-MNMOTION K-ORBITNUM Z-CHECKSUM
TO ALL RADIO AMATEURS BT
AO-07 1 07530U 74089B 08008.72298450 -.00000028 00000-0 10000-3 0 00745 2 07530 101.4891 045.4661 0011926 214.6314 145.3979 12.53573136516878 AO-10 1 14129U 83058B 08008.98779200 -.00000149 00000-0 10000-3 0 04588 2 14129 025.9399 236.6230 6039764 088.5122 335.4715 02.05870685184809 UO-11 1 14781U 84021B 08008.77816931 .00000083 00000-0 18412-4 0 05665 2 14781 098.1734 040.2522 0008273 225.8448 134.2109 14.79608209280133 RS-15 1 23439U 94085A 08009.54592892 -.00000039 00000-0 10000-3 0 01133 2 23439 064.8178 033.2028 0152000 153.1310 207.7588 11.27551984536966 FO-29 1 24278U 96046B 08009.90109926 -.00000096 00000-0 -58491-4 0 6772 2 24278 098.5784 307.0567 0349817 267.9498 088.1552 13.52934787562855 SO-33 1 25509U 98061B 08010.65994403 -.00000073 00000-0 -25043-4 0 1075 2 25509 031.4283 132.6858 0354785 081.2507 282.8122 14.28190439480932 AO-40 1 26609U 00072B 08010.36069352 -.00000287 00000-0 10000-3 0 9908 2 26609 007.2666 103.0012 7928920 040.5491 356.5655 01.25584041 33044 VO-52 1 28650U 05017B 08009.32893476 -.00000037 00000-0 20467-5 0 08267 2 28650 097.8121 080.1818 0026123 303.3046 056.5649 14.81405491144933 PO-63 1 29712U 07001D 08010.75790377 .00000800 00000-0 11250-3 0 837 2 29712 097.8991 071.7827 0014525 171.3647 188.7820 14.79978940 54038 AO-16 1 20439U 90005D 08009.52773434 .00000010 00000-0 19004-4 0 02244 2 20439 098.2131 357.8965 0010222 296.2519 063.7617 14.31781103938074 LO-19 1 20442U 90005G 08010.44004232 .00000009 00000-0 18337-4 0 1474 2 20442 098.1897 007.7300 0011068 290.1262 069.8734 14.32020491938352 AO-27 1 22825U 93061C 08010.42325063 -.00000013 00000-0 11232-4 0 8719 2 22825 098.3625 336.5903 0008832 015.8086 344.3362 14.29227540745098 IO-26 1 22826U 93061D 08010.43482654 .00000002 00000-0 17044-4 0 5712 2 22826 098.3549 337.5844 0009276 012.3749 347.7659 14.29475060745188 PO-28 1 22829U 93061G 08009.51968101 -.00000029 00000-0 50388-5 0 08462 2 22829 098.3436 337.8385 0009415 347.5001 012.5947 14.30177024745300 GO-32 1 25397U 98043D 08009.79435597 .00000064 00000-0 46674-4 0 4970 2 25397 098.3872 052.6572 0001408 029.0155 331.1119 14.23137024493548 MO-46 1 26548U 00057D 08009.17131771 .00000111 00000-0 31405-4 0 09958 2 26548 064.5580 265.3902 0010849 346.0502 014.0308 14.83217058394083 NO-44 1 26931U 01043C 08009.48665137 .00000069 00000-0 59419-4 0 7766 2 26931 067.0531 336.0587 0004809 268.8950 091.1603 14.29508255327582 SO-50 1 27607U 02058C 08008.73592875 .00000006 00000-0 23073-4 0 05002 2 27607 064.5566 180.9046 0076827 311.6767 047.7797 14.71317263271360 CO-55 1 27844U 03031E 08009.69237062 .00000066 00000-0 51043-4 0 02086 2 27844 098.7182 020.1626 0009325 213.4057 146.6527 14.20553910234796 CO-57 1 27848U 03031J 08009.52832968 .00000045 00000-0 41598-4 0 01640 2 27848 098.7175 019.1311 0009276 218.2630 141.7891 14.20367062234742 AO-51 1 28375U 04025K 08009.50800746 .00000007 00000-0 15202-4 0 00030 2 28375 098.0882 042.9220 0083449 277.8356 081.3369 14.40593226185412 CO-56 1 28941U 06005C 08009.95392764 .00024080 26839-5 21657-3 0 07592 2 28941 098.1078 100.0964 0195178 255.9526 101.9945 15.48170777105332 HO-59 1 29484U 06041F 08010.48547109 .00073646 42634-5 34103-3 0 259 2 29484 098.2565 099.2466 0144226 232.5616 126.2411 15.69626701 73385 NO-61 1 29664U 06055F 07359.16654419 .14620719 12705-4 12723-3 0 7381 2 29664 051.6179 150.0690 0003189 248.8461 111.8136 16.51627846 58777 CP4 1 31122U 07012F 08010.66030627 .00000552 00000-0 13192-3 0 2329 2 31122 098.0626 081.9945 0086623 101.3584 259.7361 14.55074694 39027 CP3 1 31128U 07012M 08010.69388476 -.00000046 00000-0 00000 0 0 2279 2 31128 098.0596 080.6836 0103815 104.8389 256.4371 14.51902757 38938 LIBERT 1 31129U 07012N 08010.60870132 .00000339 00000-0 89029-4 0 6581 2 31129 098.0618 080.6285 0103554 105.1645 256.1006 14.51993838 38900 NOAA-10 1 16969U 86073A 08009.74851470 -.00000045 00000-0 91160-7 0 09600 2 16969 098.7342 031.9381 0011641 287.6490 072.3429 14.27346720108697 NOAA-11 1 19531U 88089A 08010.33609305 -.00000156 00000-0 -58249-4 0 9941 2 19531 098.8052 101.8630 0011809 157.8326 202.3360 14.14861437995449 NOAA-12 1 21263U 91032A 08010.50380292 -.00000033 00000-0 51721-5 0 5003 2 21263 098.7620 012.5011 0011829 223.3749 136.6480 14.25511450865789 MET-3/5 1 21655U 91056A 08009.96139271 .00000051 00000-0 10000-3 0 03922 2 21655 082.5529 216.8469 0014579 053.6223 306.6241 13.17014269788622 MET-2/21 1 22782U 93055A 08010.62359505 .00000112 00000-0 87900-4 0 349 2 22782 082.5453 237.3453 0023249 018.2634 341.9353 13.83624509725206 OKEAN-4 1 23317U 94066A 08010.45291962 .00000265 00000-0 29898-4 0 4749 2 23317 082.5409 103.1862 0020545 292.1692 067.7310 14.82568537714762 NOAA-14 1 23455U 94089A 08009.88212973 .00000313 00000-0 18951-3 0 09710 2 23455 098.9680 081.9146 0008958 231.1196 128.9171 14.13734336671843 SICH-1 1 23657U 95046A 08009.82592396 .00000273 00000-0 31747-4 0 2731 2 23657 082.5264 244.7070 0022463 286.0259 073.8479 14.81542441666623 NOAA-15 1 25338U 98030A 08010.49615476 .00000035 00000-0 33503-4 0 3082 2 25338 098.5438 006.4751 0011169 140.7791 219.4188 14.24681246502200 RESURS 1 25394U 98043A 08010.67912094 -.00000022 00000-0 86647-5 0 8286 2 25394 098.4127 061.6789 0001286 343.0461 017.0675 14.24151849493888 FENGYUN1 1 25730U 99025A 08009.91472139 .00000434 00000-0 28141-3 0 3113 2 25730 098.7105 351.1809 0020264 259.7004 100.1881 14.07663338446551 OKEAN-0 1 25860U 99039A 08009.53649671 .00000075 00000-0 18807-4 0 02598 2 25860 097.7393 007.2450 0001881 070.7370 289.4040 14.73495615455883 NOAA-16 1 26536U 00055A 08010.46179933 -.00000211 00000-0 -89147-4 0 7574 2 26536 099.1416 356.2751 0009996 314.6127 045.4234 14.12463718376364 NOAA-17 1 27453U 02032A 08009.82826073 .00000025 00000-0 29523-4 0 07553 2 27453 098.5581 078.9259 0011527 207.8436 152.2111 14.23939476288127 NOAA-18 1 28654U 05018A 08009.87410704 .00000100 00000-0 79634-4 0 02679 2 28654 098.8530 312.9025 0015062 046.3082 313.9313 14.11127724136002 HUBBLE 1 20580U 90037B 08010.82652910 .00000454 00000-0 22344-4 0 450 2 20580 028.4701 276.0489 0004226 146.0216 214.0644 15.00325609771174 UARS 1 21701U 91063B 08009.84228450 .00008641 00000-0 13818-3 0 02828 2 21701 056.9742 135.8838 0083730 228.8731 130.5079 15.50181569897778 PO-34 1 25520U 98064B 08010.59784711 .00000606 00000-0 20063-4 0 9067 2 25520 028.4592 160.4628 0004892 356.9075 003.1491 15.17114065509059 ISS 1 25544U 98067A 08011.03576389 .00028406 00000-0 16177-3 0 6881 2 25544 051.6403 111.9399 0002650 049.5565 310.6642 15.78714598523570 OO-38 1 26063U 00004C 08009.71498467 -.00000007 00000-0 18136-4 0 1065 2 26063 100.2149 055.3831 0036559 298.9642 060.7879 14.35824753416683 UWE-1 1 28892U 05043C 08009.42573831 .00000074 00000-0 25247-4 0 09446 2 28892 098.1148 266.7228 0017006 185.0471 175.0546 14.59580493117291 CO-58 1 28895U 05043F 08010.42646235 .00000034 00000-0 16859-4 0 9197 2 28895 098.1163 267.9949 0017564 182.2697 177.8407 14.59623241117321 NCUBE2 1 28897U 05043H 08010.27226604 .00000124 00000-0 35594-4 0 4480 2 28897 098.1131 267.7820 0016920 184.4649 175.6396 14.59790823109583 FCAL 1 29667U 06055J 08010.65671676 .00039380 11997-4 87565-4 0 6579 2 29667 051.6318 079.2835 0010239 076.4291 283.7858 15.98616253 61064 FALCON 1 30776U 07006E 08009.54259183 .00000545 00000-0 42963-4 0 02311 2 30776 035.4341 041.5969 0000670 030.1214 329.9541 15.02846898046119 MAST 1 31126U 07012K 08009.24695377 .00000341 00000-0 87629-4 0 02282 2 31126 098.0616 079.9217 0095857 107.5825 253.5891 14.53391948038788 CAPE1 1 31130U 07012P 08009.93240846 -.00000034 00000-0 27613-5 0 02143 2 31130 098.0599 079.9539 0103572 106.9963 254.2588 14.51919809038613 /EX